| time (UTC) | temp C | wind direction | speed KPH | gust KPH | rain 1hr cm | rain 24hr cm | rain mn cm | humidity % | barometer mb |
| 20260505171544 | 12 | 159 | 12.9 | 19.3 | 0.00 | 0.05 | 0.05 | 49 | 1003.0 |
| 20260505171043 | 11 | 156 | 12.9 | 17.7 | 0.00 | 0.05 | 0.05 | 49 | 1003.0 |
| 20260505170541 | 11 | 164 | 11.3 | 16.1 | 0.00 | 0.05 | 0.05 | 48 | 1003.0 |
| 20260505170040 | 11 | 153 | 11.3 | 17.7 | 0.00 | 0.05 | 0.05 | 46 | 1003.0 |
| 20260505165541 | 11 | 178 | 9.7 | 17.7 | 0.00 | 0.05 | 0.05 | 46 | 1003.0 |
| 20260505165037 | 11 | 176 | 8.0 | 17.7 | 0.00 | 0.05 | 0.05 | 46 | 1003.0 |
| 20260505164535 | 10 | 191 | 12.9 | 16.1 | 0.00 | 0.05 | 0.05 | 46 | 1003.1 |
| 20260505164035 | 10 | 184 | 8.0 | 12.9 | 0.00 | 0.05 | 0.05 | 41 | 1003.1 |
| 20260505163532 | 10 | 188 | 4.8 | 9.7 | 0.00 | 0.05 | 0.05 | 31 | 1003.2 |
| 20260505163032 | 10 | 188 | 4.8 | 9.7 | 0.00 | 0.05 | 0.05 | 31 | 1003.2 |
| 20260505162530 | 10 | 203 | 4.8 | 12.9 | 0.00 | 0.05 | 0.05 | 32 | 1003.2 |
| 20260505162028 | 10 | 192 | 8.0 | 16.1 | 0.00 | 0.05 | 0.05 | 35 | 1003.2 |
| 20260505161538 | 10 | 186 | 9.7 | 16.1 | 0.00 | 0.05 | 0.05 | 36 | 1003.2 |
| 20260505161025 | 10 | 167 | 11.3 | 14.5 | 0.00 | 0.05 | 0.05 | 40 | 1003.0 |
| 20260505160526 | 10 | 174 | 9.7 | 14.5 | 0.00 | 0.05 | 0.05 | 41 | 1003.0 |
| 20260505153015 | 10 | 145 | 8.0 | 19.3 | 0.00 | 0.05 | 0.05 | 48 | 1002.8 |
| 20260505152512 | 10 | 149 | 8.0 | 14.5 | 0.00 | 0.05 | 0.05 | 48 | 1002.8 |
| 20260505152010 | 10 | 158 | 6.4 | 14.5 | 0.00 | 0.05 | 0.05 | 48 | 1002.9 |
| 20260505151508 | 10 | 182 | 4.8 | 11.3 | 0.00 | 0.05 | 0.05 | 45 | 1002.8 |
| 20260505151006 | 10 | 201 | 0.0 | 12.9 | 0.00 | 0.05 | 0.05 | 43 | 1002.9 |
| 20260505150505 | 10 | 201 | 3.2 | 12.9 | 0.00 | 0.05 | 0.05 | 43 | 1002.8 |
| 20260505140547 | 9 | 279 | 3.2 | 6.4 | 0.00 | 0.05 | 0.05 | 22 | 1002.9 |
| 20260505125026 | 8 | 135 | 1.6 | 4.8 | 0.00 | 0.05 | 0.05 | 1 | 1001.9 |
| 20260505124525 | 8 | 135 | 1.6 | 6.4 | 0.00 | 0.05 | 0.05 | 1 | 1001.9 |
| 20260505124027 | 8 | 135 | 1.6 | 6.4 | 0.00 | 0.05 | 0.05 | 1 | 1001.9 |
| 20260505123521 | 8 | 135 | 1.6 | 6.4 | 0.00 | 0.05 | 0.05 | 1 | 1001.9 |
| 20260505123021 | 8 | 135 | 3.2 | 9.7 | 0.00 | 0.05 | 0.05 | 1 | 1001.8 |
| 20260505122520 | 8 | 138 | 4.8 | 9.7 | 0.00 | 0.05 | 0.05 | 1 | 1001.8 |
| 20260505122021 | 8 | 138 | 4.8 | 9.7 | 0.00 | 0.05 | 0.05 | 1 | 1001.9 |
| 20260505121530 | 8 | 138 | 4.8 | 11.3 | 0.00 | 0.05 | 0.05 | 1 | 1001.8 |
| 20260505121015 | 8 | 171 | 6.4 | 11.3 | 0.00 | 0.05 | 0.05 | 1 | 1001.8 |
| 20260505120517 | 9 | 153 | 8.0 | 12.9 | 0.00 | 0.05 | 0.05 | 1 | 1001.7 |
| 20260505120011 | 8 | 179 | 8.0 | 12.9 | 0.00 | 0.05 | 0.05 | 1 | 1001.7 |
| 20260505115510 | 8 | 158 | 6.4 | 12.9 | 0.00 | 0.05 | 0.05 | 1 | 1001.7 |
| 20260505115008 | 8 | 190 | 4.8 | 9.7 | 0.00 | 0.05 | 0.05 | 1 | 1001.6 |
| 20260505114507 | 8 | 190 | 4.8 | 8.0 | 0.00 | 0.05 | 0.05 | 1 | 1001.5 |
| 20260505114006 | 8 | 190 | 1.6 | 8.0 | 0.00 | 0.05 | 0.05 | 1 | 1001.5 |
| 20260505113503 | 8 | 190 | 3.2 | 9.7 | 0.00 | 0.05 | 0.05 | 1 | 1001.6 |
| 20260505113003 | 8 | 200 | 6.4 | 9.7 | 0.00 | 0.05 | 0.05 | 1 | 1001.5 |
| 20260505112501 | 8 | 176 | 4.8 | 12.9 | 0.00 | 0.05 | 0.05 | 1 | 1001.4 |
| 20260505112100 | 8 | 161 | 8.0 | 12.9 | 0.00 | 0.05 | 0.05 | 1 | 1001.5 |
| 20260505111558 | 8 | 159 | 6.4 | 11.3 | 0.00 | 0.05 | 0.05 | 1 | 1001.4 |
| 20260505111057 | 8 | 188 | 3.2 | 8.0 | 0.00 | 0.05 | 0.05 | 1 | 1001.3 |
| 20260505110558 | 8 | 187 | 1.6 | 9.7 | 0.00 | 0.05 | 0.05 | 1 | 1001.3 |
| 20260505110105 | 8 | 188 | 4.8 | 11.3 | 0.00 | 0.05 | 0.05 | 1 | 1001.3 |
| 20260505102042 | 8 | 130 | 4.8 | 8.0 | 0.03 | 0.05 | 0.05 | 1 | 1001.4 |
| 20260505101548 | 8 | 130 | 4.8 | 8.0 | 0.03 | 0.05 | 0.05 | 1 | 1001.4 |
| 20260505101040 | 8 | 108 | 3.2 | 6.4 | 0.03 | 0.05 | 0.05 | 1 | 1001.2 |
| 20260505100540 | 8 | 108 | 3.2 | 6.4 | 0.03 | 0.05 | 0.05 | 1 | 1001.3 |
| 20260505100036 | 8 | 108 | 4.8 | 11.3 | 0.03 | 0.05 | 0.05 | 1 | 1001.3 |
| 20260505095538 | 8 | 93 | 3.2 | 11.3 | 0.03 | 0.05 | 0.05 | 1 | 1001.5 |
| 20260505095033 | 9 | 118 | 6.4 | 11.3 | 0.03 | 0.05 | 0.05 | 1 | 1001.5 |
| 20260505094531 | 9 | 111 | 6.4 | 11.3 | 0.03 | 0.05 | 0.05 | 1 | 1001.6 |
| 20260505094030 | 10 | 123 | 4.8 | 8.0 | 0.03 | 0.05 | 0.05 | 1 | 1001.6 |
| 20260505093528 | 9 | 175 | 3.2 | 9.7 | 0.03 | 0.05 | 0.05 | 1 | 1001.6 |
| 20260505093027 | 9 | 261 | 0.0 | 9.7 | 0.03 | 0.03 | 0.03 | 1 | 1001.6 |
| 20260505092528 | 8 | 359 | 1.6 | 6.4 | 0.03 | 0.03 | 0.03 | 1 | 1001.7 |
| 20260505092025 | 9 | 191 | 1.6 | 4.8 | 0.03 | 0.03 | 0.03 | 1 | 1001.9 |
| 20260505091523 | 9 | 191 | 0.0 | 3.2 | 0.03 | 0.03 | 0.03 | 1 | 1002.0 |
| 20260505091022 | 9 | 191 | 0.0 | 3.2 | 0.03 | 0.03 | 0.03 | 1 | 1002.1 |
| 20260505090521 | 9 | 191 | 0.0 | 0.0 | 0.03 | 0.03 | 0.03 | 1 | 1002.2 |
| 20260505090035 | 9 | 191 | 0.0 | 4.8 | 0.03 | 0.03 | 0.03 | 1 | 1002.3 |
| 20260505085517 | 9 | 191 | 0.0 | 6.4 | 0.03 | 0.03 | 0.03 | 1 | 1002.5 |
| 20260505085016 | 9 | 191 | 3.2 | 4.8 | 0.03 | 0.03 | 0.03 | 1 | 1002.6 |
| 20260505084514 | 9 | 191 | 0.0 | 6.4 | 0.03 | 0.03 | 0.03 | 1 | 1002.7 |
| 20260505084012 | 9 | 191 | 1.6 | 6.4 | 0.03 | 0.03 | 0.03 | 1 | 1002.7 |
| 20260505083513 | 9 | 191 | 0.0 | 6.4 | 0.03 | 0.03 | 0.03 | 1 | 1002.5 |
| 20260505083010 | 9 | 191 | 1.6 | 11.3 | 0.00 | 0.00 | 0.00 | 1 | 1002.6 |
| 20260505082512 | 9 | 191 | 4.8 | 16.1 | 0.00 | 0.00 | 0.00 | 1 | 1002.7 |
| 20260505082008 | 9 | 126 | 8.0 | 16.1 | 0.00 | 0.00 | 0.00 | 1 | 1002.6 |
| 20260505081506 | 9 | 147 | 9.7 | 14.5 | 0.00 | 0.00 | 0.00 | 1 | 1002.7 |
| 20260505081008 | 9 | 140 | 8.0 | 11.3 | 0.00 | 0.00 | 0.00 | 1 | 1002.7 |
| 20260505080503 | 9 | 166 | 6.4 | 9.7 | 0.00 | 0.00 | 0.00 | 1 | 1002.7 |
| 20260505075501 | 10 | 164 | 8.0 | 9.7 | 0.00 | 0.00 | 0.00 | 1 | 1002.8 |
| 20260505075100 | 10 | 183 | 6.4 | 9.7 | 0.00 | 0.00 | 0.00 | 1 | 1002.8 |
| 20260505074559 | 9 | 138 | 1.6 | 8.0 | 0.00 | 0.00 | 0.00 | 1 | 1002.7 |
| 20260505074059 | 9 | 138 | 3.2 | 8.0 | 0.00 | 0.00 | 0.00 | 1 | 1002.7 |
| 20260505073558 | 9 | 138 | 3.2 | 12.9 | 0.00 | 0.00 | 0.00 | 1 | 1002.8 |
| 20260505073056 | 10 | 138 | 6.4 | 14.5 | 0.00 | 0.00 | 0.00 | 1 | 1002.8 |
| 20260505072554 | 10 | 130 | 6.4 | 14.5 | 0.00 | 0.00 | 0.00 | 1 | 1002.8 |
| 20260505072051 | 10 | 113 | 9.7 | 16.1 | 0.00 | 0.00 | 0.00 | 1 | 1002.8 |
| 20260505071552 | 10 | 142 | 9.7 | 16.1 | 0.00 | 0.00 | 0.00 | 1 | 1002.8 |
| 20260505071048 | 10 | 179 | 11.3 | 16.1 | 0.00 | 0.00 | 0.00 | 1 | 1002.8 |
| 20260505070547 | 10 | 174 | 8.0 | 16.1 | 0.00 | 0.00 | 0.00 | 1 | 1002.8 |
| 20260505070045 | 10 | 196 | 6.4 | 11.3 | 0.00 | 0.00 | 0.00 | 1 | 1002.7 |
| 20260505065544 | 10 | 182 | 6.4 | 17.7 | 0.00 | 0.00 | 0.00 | 1 | 1002.5 |
| 20260505065042 | 11 | 168 | 9.7 | 22.5 | 0.00 | 0.00 | 0.00 | 10 | 1002.5 |
| 20260505064543 | 11 | 154 | 14.5 | 25.7 | 0.00 | 0.00 | 0.00 | 27 | 1002.5 |
| 20260505064040 | 11 | 161 | 16.1 | 25.7 | 0.00 | 0.00 | 0.00 | 31 | 1002.4 |
| 20260505063540 | 11 | 152 | 20.9 | 25.7 | 0.00 | 0.00 | 0.00 | 28 | 1002.4 |
| 20260505063040 | 11 | 132 | 17.7 | 24.1 | 0.00 | 0.00 | 0.00 | 27 | 1002.3 |
| 20260505062539 | 11 | 140 | 16.1 | 22.5 | 0.00 | 0.00 | 0.00 | 27 | 1002.4 |
| 20260505062040 | 11 | 135 | 16.1 | 24.1 | 0.00 | 0.00 | 0.00 | 27 | 1002.4 |
| 20260505061538 | 11 | 153 | 17.7 | 24.1 | 0.00 | 0.00 | 0.00 | 29 | 1002.4 |
| 20260505061034 | 11 | 133 | 12.9 | 24.1 | 0.00 | 0.00 | 0.00 | 32 | 1002.4 |
| 20260505060533 | 11 | 105 | 16.1 | 24.1 | 0.00 | 0.00 | 0.00 | 31 | 1002.5 |
| 20260505060036 | 11 | 113 | 14.5 | 24.1 | 0.00 | 0.00 | 0.00 | 31 | 1002.6 |
| 20260505055532 | 11 | 134 | 14.5 | 27.4 | 0.00 | 0.00 | 0.00 | 30 | 1002.5 |
| 20260505055032 | 11 | 132 | 16.1 | 22.5 | 0.00 | 0.00 | 0.00 | 29 | 1002.4 |
| 20260505054533 | 11 | 107 | 14.5 | 24.1 | 0.00 | 0.00 | 0.00 | 27 | 1002.4 |
| 20260505054031 | 11 | 122 | 16.1 | 25.7 | 0.00 | 0.00 | 0.00 | 26 | 1002.3 |
| 20260505053532 | 11 | 126 | 16.1 | 22.5 | 0.00 | 0.00 | 0.00 | 24 | 1002.3 |
| 20260505053035 | 11 | 120 | 17.7 | 22.5 | 0.00 | 0.00 | 0.00 | 23 | 1002.3 |
| 20260505052531 | 11 | 154 | 12.9 | 25.7 | 0.00 | 0.00 | 0.00 | 22 | 1002.3 |
| 20260505052031 | 11 | 128 | 16.1 | 27.4 | 0.00 | 0.00 | 0.00 | 19 | 1002.4 |
| 20260505051531 | 11 | 108 | 17.7 | 27.4 | 0.00 | 0.00 | 0.00 | 17 | 1002.3 |
| 20260505051030 | 11 | 146 | 14.5 | 24.1 | 0.00 | 0.00 | 0.00 | 14 | 1002.4 |
| 20260505050530 | 11 | 150 | 17.7 | 24.1 | 0.00 | 0.00 | 0.00 | 17 | 1002.4 |
| 20260505041525 | 12 | 132 | 20.9 | 32.2 | 0.00 | 0.00 | 0.00 | 48 | 1001.8 |
| 20260505041026 | 13 | 149 | 22.5 | 35.4 | 0.00 | 0.00 | 0.00 | 51 | 1001.6 |
| 20260505040524 | 13 | 142 | 24.1 | 37.0 | 0.00 | 0.00 | 0.00 | 52 | 1001.3 |
| 20260505040023 | 13 | 140 | 20.9 | 32.2 | 0.00 | 0.00 | 0.00 | 52 | 1000.9 |
| 20260505035526 | 13 | 135 | 20.9 | 32.2 | 0.00 | 0.00 | 0.00 | 52 | 1000.9 |
| 20260505035023 | 13 | 133 | 14.5 | 22.5 | 0.00 | 0.00 | 0.00 | 52 | 1000.8 |
| 20260505034524 | 13 | 127 | 12.9 | 22.5 | 0.00 | 0.00 | 0.00 | 52 | 1000.6 |
| 20260505034023 | 13 | 105 | 14.5 | 19.3 | 0.00 | 0.00 | 0.00 | 52 | 1000.6 |
| 20260505033525 | 13 | 130 | 14.5 | 19.3 | 0.00 | 0.00 | 0.00 | 52 | 1000.5 |
| 20260505033033 | 13 | 149 | 8.0 | 12.9 | 0.00 | 0.00 | 0.00 | 52 | 1000.6 |
| 20260505032623 | 13 | 151 | 8.0 | 16.1 | 0.00 | 0.00 | 0.00 | 52 | 1000.5 |
| 20260505032023 | 13 | 135 | 8.0 | 14.5 | 0.00 | 0.00 | 0.00 | 52 | 1000.5 |
| 20260505031523 | 13 | 112 | 4.8 | 17.7 | 0.00 | 0.00 | 0.00 | 52 | 1000.3 |
| 20260505031022 | 13 | 152 | 9.7 | 25.7 | 0.00 | 0.00 | 0.00 | 52 | 1000.2 |
| 20260505030521 | 14 | 134 | 12.9 | 25.7 | 0.00 | 0.00 | 0.00 | 52 | 1000.2 |
| 20260505030021 | 14 | 138 | 14.5 | 25.7 | 0.00 | 0.00 | 0.00 | 51 | 1000.2 |
| 20260505025521 | 14 | 135 | 16.1 | 27.4 | 0.00 | 0.00 | 0.00 | 51 | 1000.1 |
| 20260505025021 | 14 | 157 | 16.1 | 27.4 | 0.00 | 0.00 | 0.00 | 51 | 1000.1 |
| 20260505024527 | 14 | 136 | 14.5 | 20.9 | 0.00 | 0.00 | 0.00 | 51 | 1000.1 |
| 20260505024022 | 14 | 165 | 14.5 | 30.6 | 0.00 | 0.00 | 0.00 | 51 | 1000.1 |
| 20260505023520 | 14 | 140 | 19.3 | 35.4 | 0.00 | 0.00 | 0.00 | 51 | 1000.1 |
| 20260505023031 | 15 | 159 | 22.5 | 33.8 | 0.00 | 0.00 | 0.00 | 50 | 1000.0 |
| 20260505022520 | 15 | 159 | 24.1 | 33.8 | 0.00 | 0.00 | 0.00 | 49 | 999.9 |
| 20260505022020 | 15 | 175 | 24.1 | 35.4 | 0.00 | 0.00 | 0.00 | 48 | 999.9 |
| 20260505021519 | 16 | 177 | 25.7 | 30.6 | 0.00 | 0.00 | 0.00 | 47 | 999.8 |
| 20260505021021 | 16 | 160 | 22.5 | 37.0 | 0.00 | 0.00 | 0.00 | 45 | 999.9 |
| 20260505020518 | 17 | 168 | 24.1 | 37.0 | 0.00 | 0.00 | 0.00 | 43 | 999.8 |
| 20260505020019 | 17 | 153 | 16.1 | 25.7 | 0.00 | 0.00 | 0.00 | 40 | 999.6 |
| 20260505015620 | 17 | 145 | 17.7 | 25.7 | 0.00 | 0.00 | 0.00 | 39 | 999.4 |
| 20260505015018 | 17 | 142 | 14.5 | 20.9 | 0.00 | 0.00 | 0.00 | 38 | 999.2 |
| 20260505014531 | 18 | 135 | 14.5 | 20.9 | 0.00 | 0.00 | 0.00 | 38 | 999.2 |
| 20260505014018 | 18 | 130 | 11.3 | 17.7 | 0.00 | 0.00 | 0.00 | 37 | 999.1 |
| 20260505013516 | 18 | 122 | 9.7 | 16.1 | 0.00 | 0.00 | 0.00 | 37 | 999.1 |
| 20260505013017 | 18 | 157 | 8.0 | 12.9 | 0.00 | 0.00 | 0.00 | 37 | 999.0 |
| 20260505012516 | 19 | 184 | 4.8 | 8.0 | 0.00 | 0.00 | 0.00 | 37 | 999.1 |
| 20260505012016 | 19 | 196 | 1.6 | 8.0 | 0.00 | 0.00 | 0.00 | 37 | 999.1 |
| 20260505011515 | 20 | 217 | 3.2 | 8.0 | 0.00 | 0.00 | 0.00 | 36 | 999.0 |
| 20260505011014 | 20 | 218 | 3.2 | 6.4 | 0.00 | 0.00 | 0.00 | 35 | 999.1 |
| 20260505010514 | 20 | 228 | 1.6 | 8.0 | 0.00 | 0.00 | 0.00 | 36 | 999.2 |
| 20260505010013 | 20 | 239 | 1.6 | 9.7 | 0.00 | 0.00 | 0.00 | 37 | 999.2 |
| 20260505005511 | 20 | 245 | 1.6 | 11.3 | 0.00 | 0.00 | 0.00 | 36 | 999.2 |
| 20260505005011 | 19 | 245 | 3.2 | 11.3 | 0.00 | 0.00 | 0.00 | 36 | 999.3 |
| 20260505004515 | 19 | 255 | 1.6 | 12.9 | 0.00 | 0.00 | 0.00 | 38 | 999.4 |
| 20260505004009 | 19 | 249 | 3.2 | 14.5 | 0.00 | 0.00 | 0.00 | 39 | 999.4 |
| 20260505003507 | 19 | 222 | 11.3 | 14.5 | 0.00 | 0.00 | 0.00 | 40 | 999.6 |
| 20260505003007 | 19 | 197 | 1.6 | 9.7 | 0.00 | 0.00 | 0.00 | 39 | 999.6 |
| 20260505002507 | 19 | 228 | 3.2 | 9.7 | 0.00 | 0.00 | 0.00 | 37 | 999.6 |
| 20260505002007 | 19 | 220 | 4.8 | 9.7 | 0.00 | 0.00 | 0.00 | 38 | 999.6 |
| 20260505001507 | 19 | 184 | 0.0 | 8.0 | 0.00 | 0.00 | 0.00 | 36 | 999.6 |
| 20260505001007 | 19 | 184 | 4.8 | 8.0 | 0.00 | 0.00 | 0.00 | 36 | 999.7 |
| 20260505000505 | 19 | 199 | 0.0 | 9.7 | 0.00 | 0.00 | 0.00 | 36 | 999.7 |
| 20260505000010 | 20 | 165 | 6.4 | 12.9 | 0.00 | 0.00 | 0.00 | 35 | 999.7 |
| 20260504235505 | 20 | 325 | 4.8 | 12.9 | 0.00 | 0.00 | 0.00 | 35 | 999.7 |
| 20260504235004 | 20 | 288 | 3.2 | 12.9 | 0.00 | 0.00 | 0.00 | 36 | 999.7 |
| 20260504234504 | 20 | 244 | 3.2 | 12.9 | 0.00 | 0.00 | 0.00 | 36 | 999.7 |
| 20260504234006 | 19 | 264 | 1.6 | 14.5 | 0.00 | 0.00 | 0.00 | 36 | 999.7 |
| 20260504233504 | 19 | 267 | 3.2 | 11.3 | 0.00 | 0.00 | 0.00 | 37 | 999.7 |
| 20260504233003 | 19 | 345 | 0.0 | 4.8 | 0.00 | 0.00 | 0.00 | 37 | 999.7 |
| 20260504232505 | 19 | 345 | 1.6 | 9.7 | 0.00 | 0.00 | 0.00 | 37 | 999.7 |
| 20260504232003 | 18 | 302 | 1.6 | 9.7 | 0.00 | 0.00 | 0.00 | 37 | 999.7 |
| 20260504231502 | 18 | 246 | 1.6 | 6.4 | 0.00 | 0.00 | 0.00 | 37 | 999.8 |
| 20260504231002 | 18 | 317 | 3.2 | 8.0 | 0.00 | 0.00 | 0.00 | 37 | 999.8 |
| 20260504230502 | 18 | 355 | 0.0 | 8.0 | 0.00 | 0.00 | 0.00 | 37 | 999.9 |
| 20260504230101 | 18 | 359 | 3.2 | 8.0 | 0.00 | 0.00 | 0.00 | 37 | 999.9 |
| 20260504225600 | 18 | 359 | 0.0 | 8.0 | 0.00 | 0.00 | 0.00 | 40 | 1000.0 |
| 20260504225059 | 18 | 28 | 0.0 | 6.4 | 0.00 | 0.00 | 0.00 | 41 | 1000.2 |
| 20260504224600 | 18 | 355 | 1.6 | 14.5 | 0.00 | 0.00 | 0.00 | 40 | 1000.2 |
| 20260504224058 | 17 | 28 | 4.8 | 14.5 | 0.00 | 0.00 | 0.00 | 42 | 1000.3 |
| 20260504223601 | 17 | 43 | 4.8 | 16.1 | 0.00 | 0.00 | 0.00 | 42 | 1000.5 |
| 20260504223101 | 17 | 95 | 9.7 | 22.5 | 0.00 | 0.00 | 0.00 | 43 | 1000.6 |
| 20260504222559 | 17 | 100 | 14.5 | 25.7 | 0.00 | 0.00 | 0.00 | 43 | 1000.6 |
| 20260504222058 | 17 | 109 | 16.1 | 22.5 | 0.00 | 0.00 | 0.00 | 42 | 1000.6 |
| 20260504221558 | 17 | 93 | 14.5 | 22.5 | 0.00 | 0.00 | 0.00 | 42 | 1000.6 |
| 20260504221057 | 18 | 84 | 14.5 | 22.5 | 0.00 | 0.00 | 0.00 | 43 | 1000.7 |
| 20260504220557 | 18 | 107 | 12.9 | 19.3 | 0.00 | 0.00 | 0.00 | 42 | 1000.8 |
| 20260504220056 | 17 | 155 | 3.2 | 12.9 | 0.00 | 0.00 | 0.00 | 43 | 1000.9 |
| 20260504215601 | 17 | 128 | 3.2 | 12.9 | 0.00 | 0.00 | 0.00 | 43 | 1001.0 |
| 20260504215056 | 17 | 124 | 6.4 | 16.1 | 0.00 | 0.00 | 0.00 | 44 | 1001.1 |
| 20260504214657 | 17 | 136 | 6.4 | 16.1 | 0.00 | 0.00 | 0.00 | 45 | 1001.2 |
| 20260504214055 | 17 | 130 | 9.7 | 14.5 | 0.00 | 0.00 | 0.00 | 46 | 1001.3 |
| 20260504213556 | 17 | 84 | 3.2 | 9.7 | 0.00 | 0.00 | 0.00 | 44 | 1001.3 |
| 20260504213057 | 17 | 9 | 3.2 | 9.7 | 0.00 | 0.00 | 0.00 | 42 | 1001.4 |
| 20260504212556 | 17 | 59 | 4.8 | 12.9 | 0.00 | 0.00 | 0.00 | 44 | 1001.7 |
| 20260504212058 | 17 | 59 | 4.8 | 19.3 | 0.00 | 0.00 | 0.00 | 44 | 1001.7 |
| 20260504211556 | 17 | 24 | 8.0 | 27.4 | 0.00 | 0.00 | 0.00 | 45 | 1001.8 |
| 20260504211055 | 17 | 57 | 14.5 | 27.4 | 0.00 | 0.00 | 0.00 | 45 | 1001.7 |
| 20260504210554 | 17 | 41 | 17.7 | 35.4 | 0.00 | 0.00 | 0.00 | 45 | 1001.6 |
| 20260504205556 | 18 | 51 | 19.3 | 32.2 | 0.00 | 0.00 | 0.00 | 42 | 1001.4 |
| 20260504205058 | 17 | 53 | 20.9 | 38.6 | 0.00 | 0.00 | 0.00 | 44 | 1001.1 |
| 20260504204610 | 18 | 63 | 27.4 | 38.6 | 0.00 | 0.00 | 0.00 | 41 | 1000.9 |
| 20260504204055 | 18 | 49 | 12.9 | 29.0 | 0.00 | 0.00 | 0.00 | 40 | 1000.9 |
| 20260504203554 | 18 | 14 | 16.1 | 29.0 | 0.00 | 0.00 | 0.00 | 40 | 1000.8 |
| 20260504203124 | 18 | 19 | 19.3 | 32.2 | 0.00 | 0.00 | 0.00 | 40 | 1000.9 |
| 20260504202554 | 18 | 359 | 20.9 | 32.2 | 0.00 | 0.00 | 0.00 | 40 | 1000.8 |
| 20260504202054 | 18 | 332 | 20.9 | 35.4 | 0.00 | 0.00 | 0.00 | 39 | 1000.7 |
| 20260504201553 | 18 | 345 | 22.5 | 35.4 | 0.00 | 0.00 | 0.00 | 39 | 1000.7 |
| 20260504201053 | 19 | 329 | 19.3 | 25.7 | 0.00 | 0.00 | 0.00 | 38 | 1000.7 |
| 20260504200552 | 19 | 318 | 12.9 | 29.0 | 0.00 | 0.00 | 0.00 | 38 | 1000.7 |
| 20260504200052 | 18 | 339 | 17.7 | 29.0 | 0.00 | 0.00 | 0.00 | 37 | 1000.7 |
| 20260504195552 | 19 | 313 | 3.2 | 22.5 | 0.00 | 0.00 | 0.00 | 36 | 1000.6 |
| 20260504195052 | 18 | 201 | 6.4 | 22.5 | 0.00 | 0.00 | 0.00 | 38 | 1000.4 |
| 20260504194552 | 19 | 190 | 4.8 | 16.1 | 0.00 | 0.00 | 0.00 | 38 | 1000.4 |
| 20260504194052 | 19 | 195 | 8.0 | 16.1 | 0.00 | 0.00 | 0.00 | 38 | 1000.4 |
| 20260504193552 | 19 | 228 | 11.3 | 16.1 | 0.00 | 0.00 | 0.00 | 38 | 1000.5 |
| 20260504193052 | 19 | 175 | 8.0 | 16.1 | 0.00 | 0.00 | 0.00 | 38 | 1000.4 |
| 20260504192551 | 20 | 220 | 8.0 | 19.3 | 0.00 | 0.00 | 0.00 | 38 | 1000.4 |
| 20260504192051 | 20 | 244 | 8.0 | 17.7 | 0.00 | 0.00 | 0.00 | 36 | 1000.4 |
| 20260504191554 | 20 | 253 | 8.0 | 19.3 | 0.00 | 0.00 | 0.00 | 35 | 1000.4 |
| 20260504191051 | 20 | 252 | 11.3 | 25.7 | 0.00 | 0.00 | 0.00 | 36 | 1000.3 |
| 20260504190550 | 20 | 249 | 16.1 | 25.7 | 0.00 | 0.00 | 0.00 | 35 | 1000.3 |
| 20260504190053 | 20 | 227 | 11.3 | 25.7 | 0.00 | 0.00 | 0.00 | 35 | 1000.3 |
| 20260504185550 | 20 | 258 | 14.5 | 25.7 | 0.00 | 0.00 | 0.00 | 36 | 1000.4 |
| 20260504185049 | 20 | 265 | 16.1 | 32.2 | 0.00 | 0.00 | 0.00 | 34 | 1000.4 |
| 20260504184549 | 20 | 246 | 20.9 | 32.2 | 0.00 | 0.00 | 0.00 | 34 | 1000.2 |
| 20260504184048 | 21 | 311 | 0.0 | 9.7 | 0.00 | 0.00 | 0.00 | 32 | 1000.3 |
| 20260504183548 | 21 | 251 | 1.6 | 12.9 | 0.00 | 0.00 | 0.00 | 32 | 1000.5 |
| 20260504183046 | 21 | 253 | 4.8 | 19.3 | 0.00 | 0.00 | 0.00 | 32 | 1000.7 |
| 20260504182546 | 21 | 209 | 6.4 | 19.3 | 0.00 | 0.00 | 0.00 | 32 | 1000.7 |
| 20260504182046 | 22 | 207 | 9.7 | 16.1 | 0.00 | 0.00 | 0.00 | 33 | 1000.7 |
| 20260504181544 | 21 | 235 | 4.8 | 14.5 | 0.00 | 0.00 | 0.00 | 33 | 1000.8 |
| 20260504181043 | 21 | 233 | 4.8 | 22.5 | 0.00 | 0.00 | 0.00 | 32 | 1000.8 |
| 20260504180541 | 21 | 134 | 12.9 | 22.5 | 0.00 | 0.00 | 0.00 | 33 | 1001.1 |
| 20260504180041 | 21 | 157 | 3.2 | 14.5 | 0.00 | 0.00 | 0.00 | 33 | 1001.1 |
| 20260504175540 | 21 | 88 | 6.4 | 17.7 | 0.00 | 0.00 | 0.00 | 33 | 1001.1 |
| 20260504175040 | 21 | 262 | 3.2 | 16.1 | 0.00 | 0.00 | 0.00 | 33 | 1001.1 |
| 20260504174540 | 21 | 197 | 8.0 | 16.1 | 0.00 | 0.00 | 0.00 | 33 | 1001.3 |
| 20260504174039 | 21 | 107 | 12.9 | 19.3 | 0.00 | 0.00 | 0.00 | 34 | 1001.3 |
| 20260504173537 | 21 | 43 | 6.4 | 19.3 | 0.00 | 0.00 | 0.00 | 34 | 1001.5 |
| 20260504173040 | 20 | 151 | 11.3 | 20.9 | 0.00 | 0.00 | 0.00 | 35 | 1001.5 |
| 20260504172536 | 20 | 125 | 4.8 | 20.9 | 0.00 | 0.00 | 0.00 | 34 | 1001.6 |
| 20260504172036 | 20 | 90 | 6.4 | 19.3 | 0.00 | 0.00 | 0.00 | 35 | 1001.6 |